SL-8 R/B

Satellite information

Favourite Embed

Satellite Type and Status

ROCKET BODYIN ORBIT

Key statistics

Satellite SL-8 R/B at a glance.

Uptime

15510

Days in orbit

Revolutions

≈ 13.8

Per day

Orbit

LEO

Low Earth Orbit

Inclination

82.9

Latest

Satellite identification and parameters

Extended collection of information and parameters for SL-8 R/B.

Object identification

Identified? True

Debris? False

Object name: SL-8 R/B

International designator: 1983-021B

Object number (NORAD): 13917

Object ID (CCSDS): 13917

Country: COMMONWEALTH OF INDEPENDENT STATES (CIS)

Current information (Y/N): Y

RCS size: LARGE

Orbital parameters

Period: 104.568 minutes

Inclination: 82.9471 deg

SMA: 7352.352 km

Apoapsis: 995.995 km

Periapsis: 952.439 km

RAAN: 173.5144 deg

Eccentricy: 0.00296208

Argument of periapsis: 117.7623 deg

Mean anomaly: 54.814 deg

Mean motion: 13.77093177 rev/day

Mean motion (dot): 0.00000085 rev/day2

B* drag term: 0.000070201093 1/REarth

Two-line elements (TLE)

Creation date: Sept. 8, 2025, 6:18 p.m.

Reference frame: TEME

Reference center: EARTH

Epoch: Sept. 8, 2025, 1:47 p.m. UTC

TLE line 0: 0 SL-8 R/B

TLE line 1: 1 13917U 83021B 25251.57459284 .00000085 00000-0 70201-4 0 9991

TLE line 2: 2 13917 82.9471 173.5144 0029621 117.7623 54.8140 13.77093177132919

Live tracking on map

Real-time ground track for satellite SL-8 R/B.

In-orbit conjunctions

A list of the most updated potential collisions computed for object SL-8 R/B.

Target Orbit TCA Probability of collision Miss distance Type
COSMOS 1513 LEO 2024-05-31 23:15:57 0.0002253426 97.0 (m) PAYLOAD

Associated space launch

Civilian navigation satellite equivalent to the purely military Parus

SL-8 R/B was lifted into orbit during the mission ‘Kosmos-3M | Nadezhda 2’, on board a Kosmos-3M space rocket.

The launch took place on March 24, 1983, 8:55 p.m. from 132/2.

For more information about the launch, click the button.

Launch to space Kosmos-3M | Nadezhda 2
Kosmos-3M | Nadezhda 2

Agency: N/A

Status: Launch Successful

Launch date: March 24, 1983, 8:55 p.m. UTC

Rocket: Kosmos-3M

Launch pad: 132/2

Location: Plesetsk Cosmodrome, Russian Federation

...

Latest news about this satellite

There are no fresh news available about this satellite. Check back as we update our databases every day.


Newsletter sign-up

Weekly statistics, charts and insights to help you stay on top of the space industry.